Weather History for Baltimore Martin, MD

Change the Weather History Date:

Tuesday, August 13, 2013

  Actual Average Record
Temperature  
Mean Temperature 78 °F -  
Max Temperature 84 °F 82 °F 93 °F (2002)
Min Temperature 73 °F 67 °F 59 °F (2006)
Cooling Degree Days 14    
Growing Degree Days 28 (Base 50)    
Moisture  
Dew Point 73 °F    
Average Humidity 83    
Maximum Humidity 100    
Minimum Humidity 62    
Precipitation  
Precipitation 0.00 in - - ()
Sea Level Pressure  
Sea Level Pressure 29.82 in    
Wind  
Wind Speed 5 mph (SSW)    
Max Wind Speed 18 mph    
Max Gust Speed 23 mph    
Visibility 9 miles    
Events Rain , Thunderstorm    
Averages and records for this station are not official NWS values.
T = Trace of Precipitation, MM = Missing Value Source: NWS Daily Summary

Daily Weather History Graph

Daily Weather History Graph

Search for Another Location

Airport:

Trip Planner

Search our weather history database for the weather conditions in past years. The results will help you decide how hot, cold, wet, or windy it might be!

Date:

Astronomy

Aug. 13, 2013 Rise Set
Actual Time 6:16 AM EDT 8:03 PM EDT
Civil Twilight 5:47 AM EDT 8:32 PM EDT
Nautical Twilight 5:12 AM EDT 9:06 PM EDT
Astronomical Twilight 4:35 AM EDT 9:44 PM EDT
Moon 1:06 PM EDT (8/13) 11:39 PM EDT (8/13)
Length of Visible Light 14h 44m
Length of Day
13h 46m
Waxing Crescent, 41% of the Moon is Illuminated
Aug 13
Waxing Crescent
Aug 14
First Quarter
Aug 20
Full
Aug 28
Last Quarter
Sep 5
New

Hourly Weather History & Observations

Time (EDT) Temp. Heat Index Dew Point Humidity Pressure Visibility Wind Dir Wind Speed Gust Speed Precip Events Conditions
12:09 AM 77.0 °F - 75.2 °F 94% 29.92 in 7.0 mi Calm Calm - N/A   Clear
12:48 AM 75.2 °F - 73.4 °F 94% 29.92 in 7.0 mi Calm Calm - N/A   Clear
1:09 AM 77.0 °F - 75.2 °F 94% 29.91 in 10.0 mi Calm Calm - N/A   Clear
1:30 AM 77.0 °F - 73.4 °F 89% 29.90 in 10.0 mi Calm Calm - N/A   Clear
1:48 AM 77.0 °F - 73.4 °F 89% 29.89 in 10.0 mi Calm Calm - N/A   Clear
2:09 AM 78.8 °F - 73.4 °F 83% 29.89 in 10.0 mi ESE 3.5 mph - N/A   Clear
2:30 AM 78.8 °F - 73.4 °F 83% 29.88 in 10.0 mi ESE 4.6 mph - N/A   Scattered Clouds
2:48 AM 78.8 °F - 73.4 °F 83% 29.87 in 10.0 mi ESE 3.5 mph - N/A   Clear
3:09 AM 78.8 °F - 73.4 °F 83% 29.86 in 10.0 mi SE 8.1 mph - N/A   Clear
3:30 AM 78.8 °F - 73.4 °F 83% 29.85 in 10.0 mi SE 8.1 mph - N/A   Clear
3:48 AM 78.8 °F - 75.2 °F 89% 29.85 in 10.0 mi SSE 11.5 mph - N/A   Clear
4:09 AM 78.8 °F - 75.2 °F 89% 29.84 in 10.0 mi SSE 6.9 mph - N/A   Clear
4:30 AM 78.8 °F - 75.2 °F 89% 29.83 in 10.0 mi SSE 6.9 mph - N/A Thunderstorm Clear
4:48 AM 78.8 °F - 75.2 °F 89% 29.82 in 10.0 mi South 5.8 mph - N/A   Scattered Clouds
5:09 AM 78.8 °F - 73.4 °F 83% 29.80 in 10.0 mi SSE 8.1 mph - N/A   Scattered Clouds
5:30 AM 78.8 °F - 73.4 °F 83% 29.78 in 10.0 mi SE 18.4 mph 23.0 mph N/A   Scattered Clouds
5:33 AM 78.8 °F - 73.4 °F 83% 29.78 in 10.0 mi SSE 16.1 mph 23.0 mph N/A   Scattered Clouds
5:55 AM 80.6 °F 86.2 °F 75.2 °F 84% 29.79 in 10.0 mi South 9.2 mph - N/A   Overcast
6:45 AM 80.6 °F 86.2 °F 75.2 °F 84% 29.78 in 10.0 mi South 6.9 mph - N/A   Overcast
7:45 AM 80.6 °F 86.2 °F 75.2 °F 84% 29.79 in 10.0 mi SW 4.6 mph - N/A   Overcast
8:45 AM 75.2 °F - 73.4 °F 94% 29.79 in 5.0 mi WNW 6.9 mph 17.3 mph N/A Rain Light Rain
9:45 AM 73.4 °F - 73.4 °F 100% 29.79 in 7.0 mi NW 5.8 mph - N/A   Mostly Cloudy
10:50 AM 73.4 °F - 71.6 °F 94% 29.81 in 7.0 mi NW 6.9 mph - N/A   Mostly Cloudy
11:50 AM 75.2 °F - 71.6 °F 89% 29.81 in 7.0 mi WNW 6.9 mph - N/A   Mostly Cloudy
12:45 PM 78.8 °F - 71.6 °F 78% 29.80 in 10.0 mi NW 8.1 mph - N/A   Mostly Cloudy
1:54 PM 80.6 °F 83.9 °F 69.8 °F 70% 29.79 in 10.0 mi West 12.7 mph - N/A   Mostly Cloudy
2:50 PM 82.4 °F 86.3 °F 69.8 °F 66% 29.78 in 10.0 mi West 5.8 mph - N/A   Scattered Clouds
3:50 PM 84.2 °F 89.6 °F 71.6 °F 66% 29.76 in 10.0 mi WNW 6.9 mph - N/A   Scattered Clouds
4:50 PM 84.2 °F 88.4 °F 69.8 °F 62% 29.75 in 10.0 mi SW 6.9 mph - N/A   Scattered Clouds
5:45 PM 82.4 °F 88.2 °F 73.4 °F 74% 29.75 in 10.0 mi SE 10.4 mph - N/A   Scattered Clouds
6:45 PM 80.6 °F 85.4 °F 73.4 °F 79% 29.76 in 10.0 mi SE 5.8 mph - N/A   Overcast
7:50 PM 80.6 °F 85.4 °F 73.4 °F 79% 29.76 in 7.0 mi NE 4.6 mph - N/A   Overcast
8:50 PM 78.8 °F - 71.6 °F 78% 29.77 in 10.0 mi NNE 5.8 mph - N/A   Overcast
10:12 PM 75.2 °F - 71.6 °F 89% 29.79 in 10.0 mi Calm Calm - N/A   Scattered Clouds
10:30 PM 75.2 °F - 71.6 °F 89% 29.79 in 10.0 mi Calm Calm - N/A   Light Drizzle
10:51 PM 75.2 °F - 71.6 °F 89% 29.80 in 10.0 mi NW 4.6 mph - N/A   Scattered Clouds
11:12 PM 75.2 °F - 71.6 °F 89% 29.80 in 10.0 mi NW 6.9 mph - N/A   Mostly Cloudy
11:33 PM 77.0 °F - 64.4 °F 65% 29.81 in 10.0 mi NW 6.9 mph - N/A   Scattered Clouds
11:51 PM 77.0 °F - 64.4 °F 65% 29.81 in 10.0 mi NW 8.1 mph - N/A   Scattered Clouds